| time (UTC) | temp C | wind direction | speed KPH | gust KPH | rain 1hr cm | rain 24hr cm | rain mn cm | humidity % | barometer mb |
| 20260507213052 | 16 | 0 | 8.0 | 19.3 | 0.00 | 0.00 | 0.00 | 42 | 1010.9 |
| 20260507211556 | 16 | 319 | 3.2 | 16.1 | 0.00 | 0.00 | 0.00 | 45 | 1010.9 |
| 20260507210059 | 16 | 306 | 4.8 | 22.5 | 0.00 | 0.00 | 0.00 | 45 | 1010.7 |
| 20260507204556 | 16 | 320 | 8.0 | 20.9 | 0.00 | 0.00 | 0.00 | 44 | 1010.5 |
| 20260507203058 | 15 | 317 | 8.0 | 19.3 | 0.00 | 0.00 | 0.00 | 46 | 1010.7 |
| 20260507201557 | 15 | 279 | 12.9 | 24.1 | 0.00 | 0.00 | 0.00 | 44 | 1010.7 |
| 20260507200056 | 16 | 250 | 4.8 | 24.1 | 0.00 | 0.00 | 0.00 | 47 | 1010.5 |
| 20260507194556 | 16 | 261 | 8.0 | 17.7 | 0.00 | 0.00 | 0.00 | 45 | 1010.8 |
| 20260507193052 | 15 | 271 | 9.7 | 20.9 | 0.00 | 0.00 | 0.00 | 45 | 1010.9 |
| 20260507191553 | 15 | 302 | 11.3 | 29.0 | 0.00 | 0.00 | 0.00 | 47 | 1010.9 |
| 20260507190054 | 15 | 262 | 6.4 | 17.7 | 0.00 | 0.00 | 0.00 | 47 | 1010.9 |
| 20260507184555 | 15 | 338 | 6.4 | 16.1 | 0.00 | 0.00 | 0.00 | 50 | 1011.1 |
| 20260507183055 | 15 | 222 | 4.8 | 17.7 | 0.00 | 0.00 | 0.00 | 51 | 1011.0 |
| 20260507181551 | 15 | 170 | 6.4 | 19.3 | 0.00 | 0.00 | 0.00 | 50 | 1011.1 |
| 20260507180059 | 15 | 186 | 6.4 | 12.9 | 0.00 | 0.00 | 0.00 | 54 | 1011.5 |
| 20260507174605 | 15 | 60 | 3.2 | 22.5 | 0.00 | 0.00 | 0.00 | 58 | 1011.5 |
| 20260507173052 | 15 | 284 | 8.0 | 22.5 | 0.00 | 0.00 | 0.00 | 56 | 1011.9 |
| 20260507171611 | 15 | 259 | 3.2 | 19.3 | 0.00 | 0.00 | 0.00 | 54 | 1011.8 |
| 20260507170105 | 15 | 44 | 4.8 | 17.7 | 0.00 | 0.00 | 0.00 | 53 | 1011.6 |
| 20260507164603 | 14 | 350 | 8.0 | 16.1 | 0.00 | 0.00 | 0.00 | 57 | 1011.8 |
| 20260507163101 | 13 | 162 | 1.6 | 12.9 | 0.00 | 0.00 | 0.00 | 59 | 1012.0 |
| 20260507161601 | 14 | 0 | 3.2 | 11.3 | 0.00 | 0.00 | 0.00 | 58 | 1011.9 |
| 20260507160056 | 13 | 86 | 4.8 | 14.5 | 0.00 | 0.00 | 0.00 | 64 | 1012.0 |
| 20260507154557 | 13 | 198 | 6.4 | 16.1 | 0.00 | 0.00 | 0.00 | 62 | 1012.1 |
| 20260507153104 | 13 | 216 | 1.6 | 9.7 | 0.00 | 0.00 | 0.00 | 62 | 1012.0 |
| 20260507151554 | 13 | 0 | 3.2 | 14.5 | 0.00 | 0.00 | 0.00 | 64 | 1011.8 |
| 20260507150052 | 12 | 134 | 3.2 | 16.1 | 0.00 | 0.00 | 0.00 | 66 | 1011.9 |
| 20260507144555 | 13 | 49 | 1.6 | 6.4 | 0.00 | 0.00 | 0.00 | 64 | 1011.8 |
| 20260507143056 | 12 | 118 | 0.0 | 8.0 | 0.00 | 0.00 | 0.00 | 72 | 1011.7 |
| 20260507141552 | 12 | 0 | 1.6 | 6.4 | 0.00 | 0.00 | 0.00 | 71 | 1011.9 |
| 20260507140103 | 12 | 155 | 1.6 | 4.8 | 0.00 | 0.00 | 0.00 | 71 | 1011.9 |
| 20260507134600 | 11 | 55 | 3.2 | 8.0 | 0.00 | 0.00 | 0.00 | 75 | 1012.1 |
| 20260507133113 | 11 | 67 | 0.0 | 6.4 | 0.00 | 0.00 | 0.00 | 77 | 1012.0 |
| 20260507131558 | 11 | 101 | 0.0 | 6.4 | 0.00 | 0.00 | 0.00 | 81 | 1012.1 |
| 20260507130112 | 10 | 98 | 0.0 | 6.4 | 0.00 | 0.00 | 0.00 | 86 | 1012.2 |
| 20260507124631 | 10 | 0 | 0.0 | 0.0 | 0.00 | 0.00 | 0.00 | 94 | 1012.4 |
| 20260507123110 | 10 | 0 | 0.0 | 3.2 | 0.00 | 0.00 | 0.00 | 94 | 1012.4 |
| 20260507121602 | 9 | 0 | 0.0 | 0.0 | 0.00 | 0.00 | 0.00 | 95 | 1012.3 |
| 20260507120058 | 9 | 0 | 0.0 | 0.0 | 0.00 | 0.00 | 0.00 | 95 | 1012.1 |
| 20260507114612 | 9 | 0 | 0.0 | 0.0 | 0.00 | 0.00 | 0.00 | 95 | 1012.0 |
| 20260507113059 | 8 | 0 | 0.0 | 0.0 | 0.00 | 0.00 | 0.00 | 95 | 1012.1 |
| 20260507111602 | 8 | 0 | 0.0 | 0.0 | 0.00 | 0.00 | 0.00 | 95 | 1011.9 |
| 20260507110054 | 8 | 0 | 0.0 | 0.0 | 0.00 | 0.00 | 0.00 | 94 | 1011.8 |
| 20260507104557 | 8 | 0 | 0.0 | 0.0 | 0.00 | 0.15 | 0.00 | 95 | 1011.6 |
| 20260507103052 | 8 | 0 | 0.0 | 0.0 | 0.00 | 0.15 | 0.00 | 95 | 1011.7 |
| 20260507101557 | 8 | 0 | 0.0 | 0.0 | 0.00 | 0.15 | 0.00 | 94 | 1011.8 |
| 20260507100056 | 8 | 0 | 0.0 | 0.0 | 0.00 | 0.15 | 0.00 | 94 | 1011.7 |
| 20260507094553 | 9 | 0 | 0.0 | 3.2 | 0.00 | 0.64 | 0.00 | 93 | 1011.5 |
| 20260507093054 | 9 | 0 | 0.0 | 0.0 | 0.00 | 0.64 | 0.00 | 94 | 1011.6 |
| 20260507091552 | 9 | 0 | 0.0 | 0.0 | 0.00 | 0.64 | 0.00 | 93 | 1011.6 |
| 20260507090058 | 9 | 0 | 0.0 | 0.0 | 0.00 | 0.64 | 0.00 | 91 | 1011.5 |
| 20260507084552 | 9 | 0 | 0.0 | 0.0 | 0.00 | 0.86 | 0.00 | 93 | 1011.5 |
| 20260507083054 | 9 | 0 | 0.0 | 0.0 | 0.00 | 0.86 | 0.00 | 93 | 1011.6 |
| 20260507081557 | 9 | 0 | 0.0 | 0.0 | 0.00 | 0.86 | 0.00 | 94 | 1011.5 |
| 20260507074605 | 10 | 0 | 0.0 | 0.0 | 0.00 | 1.04 | 0.00 | 92 | 1011.4 |
| 20260507073055 | 10 | 0 | 0.0 | 0.0 | 0.00 | 1.04 | 0.00 | 91 | 1011.3 |
| 20260507071555 | 10 | 0 | 0.0 | 0.0 | 0.00 | 1.04 | 0.00 | 92 | 1011.2 |
| 20260507070111 | 10 | 0 | 0.0 | 0.0 | 0.00 | 1.04 | 0.00 | 90 | 1011.6 |
| 20260507064605 | 10 | 0 | 0.0 | 0.0 | 0.00 | 1.30 | 0.00 | 89 | 1011.5 |
| 20260507063059 | 10 | 0 | 0.0 | 0.0 | 0.00 | 1.30 | 0.00 | 88 | 1011.6 |
| 20260507061554 | 10 | 0 | 0.0 | 0.0 | 0.00 | 1.30 | 0.00 | 89 | 1011.5 |
| 20260507060056 | 10 | 0 | 0.0 | 1.6 | 0.00 | 1.30 | 0.00 | 88 | 1011.6 |
| 20260507054556 | 10 | 0 | 0.0 | 3.2 | 0.00 | 1.32 | 0.00 | 88 | 1011.6 |
| 20260507053058 | 10 | 0 | 0.0 | 1.6 | 0.00 | 1.32 | 0.00 | 88 | 1011.6 |
| 20260507051603 | 10 | 0 | 0.0 | 3.2 | 0.00 | 1.32 | 0.00 | 91 | 1012.0 |
| 20260507050054 | 10 | 69 | 0.0 | 8.0 | 0.00 | 1.32 | 0.00 | 93 | 1011.8 |
| 20260507044556 | 10 | 0 | 0.0 | 1.6 | 0.00 | 1.45 | 0.00 | 95 | 1011.9 |
| 20260507043059 | 11 | 0 | 0.0 | 1.6 | 0.00 | 1.45 | 0.00 | 96 | 1011.7 |
| 20260507041555 | 11 | 0 | 0.0 | 3.2 | 0.00 | 1.45 | 0.00 | 97 | 1012.0 |
| 20260507034559 | 11 | 0 | 0.0 | 3.2 | 0.00 | 1.45 | 1.45 | 98 | 1012.3 |
| 20260507033056 | 11 | 0 | 0.0 | 1.6 | 0.00 | 1.45 | 1.45 | 98 | 1011.9 |
| 20260507031559 | 11 | 0 | 0.0 | 0.0 | 0.00 | 1.45 | 1.45 | 97 | 1011.7 |
| 20260507030055 | 11 | 0 | 0.0 | 0.0 | 0.00 | 1.45 | 1.45 | 97 | 1011.4 |
| 20260507024557 | 11 | 0 | 0.0 | 0.0 | 0.00 | 1.45 | 1.45 | 97 | 1011.2 |
| 20260507023055 | 11 | 308 | 0.0 | 1.6 | 0.00 | 1.45 | 1.45 | 96 | 1011.2 |
| 20260507021554 | 12 | 0 | 0.0 | 0.0 | 0.00 | 1.45 | 1.45 | 96 | 1011.3 |
| 20260507020058 | 12 | 0 | 0.0 | 1.6 | 0.00 | 1.45 | 1.45 | 96 | 1011.2 |
| 20260507014559 | 12 | 0 | 0.0 | 4.8 | 0.00 | 1.45 | 1.45 | 95 | 1011.3 |
| 20260507013117 | 12 | 192 | 0.0 | 3.2 | 0.00 | 1.45 | 1.45 | 94 | 1011.2 |
| 20260507011553 | 12 | 321 | 1.6 | 6.4 | 0.00 | 1.45 | 1.45 | 95 | 1011.9 |
| 20260507010105 | 12 | 220 | 1.6 | 6.4 | 0.00 | 1.45 | 1.45 | 95 | 1011.3 |
| 20260507004553 | 12 | 360 | 0.0 | 4.8 | 0.00 | 1.45 | 1.45 | 95 | 1011.0 |
| 20260507003059 | 12 | 0 | 1.6 | 6.4 | 0.00 | 1.45 | 1.45 | 94 | 1011.1 |
| 20260507001558 | 12 | 0 | 0.0 | 0.0 | 0.00 | 1.45 | 1.45 | 94 | 1010.4 |
| 20260507000057 | 12 | 0 | 0.0 | 0.0 | 0.00 | 1.45 | 1.45 | 94 | 1010.3 |
| 20260506234558 | 12 | 327 | 3.2 | 6.4 | 0.00 | 1.45 | 1.45 | 93 | 1011.0 |
| 20260506233105 | 12 | 0 | 0.0 | 0.0 | 0.00 | 1.45 | 1.45 | 94 | 1009.5 |
| 20260506231605 | 13 | 0 | 0.0 | 3.2 | 0.00 | 1.45 | 1.45 | 92 | 1010.3 |
| 20260506224555 | 13 | 0 | 0.0 | 3.2 | 0.00 | 1.45 | 1.45 | 88 | 1009.9 |
| 20260506223100 | 13 | 0 | 0.0 | 1.6 | 0.00 | 1.45 | 1.45 | 89 | 1010.0 |
| 20260506221600 | 13 | 355 | 0.0 | 3.2 | 0.00 | 1.45 | 1.45 | 88 | 1010.1 |
| 20260506220059 | 13 | 0 | 0.0 | 4.8 | 0.00 | 1.45 | 1.45 | 88 | 1010.7 |
| 20260506214555 | 13 | 0 | 1.6 | 4.8 | 0.00 | 1.45 | 1.45 | 87 | 1010.3 |